Location: Golden Pond Observatory
(36.7773°N, 88.0631°W)
Time: 08:29:43
(UTC-05:00)

N. Korean satellite - Visible Passes

Search period start: 21 October 2019 00:00
Search period end: 31 October 2019 00:00
Orbit: 455 x 508 km, 97.2° (Epoch: 20 October)

Date Brightness Start Highest point End Pass type
(mag) Time Alt. Az. Time Alt. Az. Time Alt. Az.
21 Oct 10.3 05:44:49 10° ENE 05:46:26 12° E 05:48:03 10° ESE visible
22 Oct 10.0 18:59:02 10° SW 19:01:02 15° W 19:03:03 10° WNW visible
23 Oct 8.0 06:25:52 10° NNE 06:29:23 45° E 06:32:56 10° S visible
23 Oct 8.7 18:32:31 10° SSW 18:35:36 32° W 18:38:44 10° NNW visible
24 Oct 9.6 06:01:10 10° NE 06:04:00 21° E 06:06:51 10° SE visible
26 Oct 9.8 18:50:37 10° SW 18:53:06 19° W 18:55:37 10° NW visible
27 Oct 8.5 06:18:06 10° NNE 06:21:31 35° E 06:24:56 10° SSE visible
27 Oct 8.1 18:24:25 10° S 18:27:41 41° W 18:31:00 10° NNW visible
28 Oct 9.9 05:53:36 10° NE 05:56:06 17° E 05:58:35 10° SE visible
29 Oct 10.4 19:09:39 10° WSW 19:10:37 11° W 19:11:36 10° WNW visible
30 Oct 7.2 06:35:17 10° NNE 06:38:58 64° E 06:42:39 10° S visible
30 Oct 9.3 18:42:18 10° SSW 18:45:07 24° W 18:48:00 10° NW visible
